This is the latest recevied weather packets stored in our database for station/object ER1XDX-10. If no packets are shown the sender has not sent any weather packets the latest 10 day(s).
| Time | Temp. | Humidity | Pressure | Rain* | Wind** | Luminosity | Snow |
|---|---|---|---|---|---|---|---|
| 1777682039 | 20° C | 45% | 1018.2 hPa | - | - | - | - |
| 1777681138 | 20° C | 45% | 1018.3 hPa | - | - | - | - |
| 1777680238 | 20° C | 45% | 1018.3 hPa | - | - | - | - |
| 1777679337 | 20° C | 45% | 1018.4 hPa | - | - | - | - |
| 1777678437 | 20° C | 45% | 1018.3 hPa | - | - | - | - |
| 1777677536 | 20° C | 45% | 1018.3 hPa | - | - | - | - |
| 1777676636 | 20° C | 45% | 1018.4 hPa | - | - | - | - |
| 1777675735 | 20° C | 45% | 1018.4 hPa | - | - | - | - |
| 1777674835 | 20° C | 45% | 1018.5 hPa | - | - | - | - |
| 1777673934 | 20° C | 45% | 1018.6 hPa | - | - | - | - |
| 1777673034 | 20° C | 46% | 1018.6 hPa | - | - | - | - |
| 1777672133 | 20.56° C | 47% | 1018.6 hPa | - | - | - | - |
| 1777671233 | 20.56° C | 47% | 1018.6 hPa | - | - | - | - |
| 1777670333 | 20.56° C | 48% | 1018.6 hPa | - | - | - | - |
| 1777669433 | 20.56° C | 49% | 1018.7 hPa | - | - | - | - |
| 1777668532 | 20.56° C | 51% | 1018.6 hPa | - | - | - | - |
| 1777667632 | 20° C | 50% | 1018.6 hPa | - | - | - | - |
| 1777666732 | 20° C | 45% | 1018.7 hPa | - | - | - | - |
| 1777665832 | 20° C | 42% | 1018.7 hPa | - | - | - | - |
| 1777664931 | 20° C | 39% | 1018.7 hPa | - | - | - | - |
| 1777664030 | 20° C | 39% | 1018.7 hPa | - | - | - | - |
| 1777663130 | 20° C | 39% | 1018.7 hPa | - | - | - | - |
| 1777662230 | 20° C | 39% | 1018.8 hPa | - | - | - | - |
| 1777661330 | 20° C | 39% | 1018.6 hPa | - | - | - | - |
| 1777660430 | 20° C | 39% | 1018.8 hPa | - | - | - | - |
* Rain since midnight (hover to see other rain measurements)
** Current wind speed in m/s (hover to see current wind gust speed)